Year,Month,Day,Hour,Minute,Value (Times are PST for temperature in C)
2008,11,13,09,56,9.40
2008,11,13,09,57,9.40
2008,11,13,09,58,9.40
2008,11,13,09,59,9.40
2008,11,13,10,00,9.40
2008,11,13,10,01,9.40
2008,11,13,10,02,9.40
2008,11,13,10,03,9.40
2008,11,13,10,04,9.40
2008,11,13,10,05,9.40
2008,11,13,10,06,9.40
2008,11,13,10,07,9.40
2008,11,13,10,08,9.50
2008,11,13,10,09,9.50
2008,11,13,10,10,9.50
2008,11,13,10,11,9.60
2008,11,13,10,12,9.60
2008,11,13,10,13,9.70
2008,11,13,10,14,9.70
2008,11,13,10,15,9.70
2008,11,13,10,16,9.70
2008,11,13,10,17,9.70
2008,11,13,10,18,9.70
2008,11,13,10,19,9.70
2008,11,13,10,20,9.70
2008,11,13,10,21,9.80
2008,11,13,10,22,9.80
2008,11,13,10,23,9.90
2008,11,13,10,24,9.90
2008,11,13,10,25,9.90
2008,11,13,10,26,9.90
2008,11,13,10,27,9.90
2008,11,13,10,28,9.90
2008,11,13,10,29,10.00
2008,11,13,10,30,10.10
2008,11,13,10,31,10.10
2008,11,13,10,32,10.10
2008,11,13,10,33,10.10
2008,11,13,10,34,10.10
2008,11,13,10,35,10.10
2008,11,13,10,36,10.10
2008,11,13,10,37,10.10
2008,11,13,10,38,10.10
2008,11,13,10,39,10.20
2008,11,13,10,40,10.20
2008,11,13,10,41,10.20
2008,11,13,10,42,10.20
2008,11,13,10,43,10.20
2008,11,13,10,44,10.30
2008,11,13,10,45,10.30
2008,11,13,10,46,10.30
2008,11,13,10,47,10.30
2008,11,13,10,48,10.30
2008,11,13,10,49,10.30
2008,11,13,10,50,10.30
2008,11,13,10,51,10.30
2008,11,13,10,52,10.30
2008,11,13,10,53,10.40
2008,11,13,10,54,10.40
2008,11,13,10,56,10.40
2008,11,13,10,57,10.40
2008,11,13,10,58,10.40
2008,11,13,10,59,10.40
2008,11,13,11,00,10.40
2008,11,13,11,01,10.40
2008,11,13,11,02,10.40
2008,11,13,11,03,10.40
2008,11,13,11,04,10.40
2008,11,13,11,05,10.40
2008,11,13,11,06,10.40
2008,11,13,11,07,10.40
2008,11,13,11,08,10.40
2008,11,13,11,09,10.40
2008,11,13,11,10,10.40
2008,11,13,11,11,10.40
2008,11,13,11,12,10.40
2008,11,13,11,13,10.40
2008,11,13,11,14,10.40
2008,11,13,11,15,10.40
2008,11,13,11,16,10.50
2008,11,13,11,17,10.60
2008,11,13,11,18,10.60
2008,11,13,11,19,10.60
2008,11,13,11,20,10.60
2008,11,13,11,21,10.60
2008,11,13,11,22,10.60
2008,11,13,11,23,10.60
2008,11,13,11,24,10.60
2008,11,13,11,25,10.60
2008,11,13,11,26,10.60
2008,11,13,11,27,10.60
2008,11,13,11,28,10.60
2008,11,13,11,29,10.60
2008,11,13,11,30,10.60
2008,11,13,11,31,10.60
2008,11,13,11,32,10.60
2008,11,13,11,33,10.60
2008,11,13,11,34,10.60
2008,11,13,11,35,10.60
2008,11,13,11,36,10.60
2008,11,13,11,37,10.60
2008,11,13,11,38,10.60
2008,11,13,11,39,10.60
2008,11,13,11,40,10.60
2008,11,13,11,41,10.60
2008,11,13,11,42,10.70
2008,11,13,11,43,10.70
2008,11,13,11,44,10.70
2008,11,13,11,45,10.60
2008,11,13,11,46,10.60
2008,11,13,11,47,10.60
2008,11,13,11,48,10.60
2008,11,13,11,49,10.70
2008,11,13,11,50,10.70
2008,11,13,11,51,10.80
2008,11,13,11,52,10.90
2008,11,13,11,53,10.90
2008,11,13,11,54,10.90
2008,11,13,11,55,10.90
2008,11,13,11,56,10.90
2008,11,13,11,57,10.90
2008,11,13,11,58,10.90
2008,11,13,11,59,10.90
2008,11,13,12,00,10.90
2008,11,13,12,01,10.90
2008,11,13,12,02,11.00
2008,11,13,12,03,11.10
2008,11,13,12,04,11.10
2008,11,13,12,05,11.10
2008,11,13,12,06,11.10
2008,11,13,12,07,10.40
2008,11,13,13,02,11.50
2008,11,13,13,03,11.60
2008,11,13,13,04,11.60
2008,11,13,13,05,11.50
2008,11,13,13,06,11.40
2008,11,13,13,07,11.30
2008,11,13,13,08,11.30
2008,11,13,13,09,11.30
2008,11,13,13,10,11.30
2008,11,13,13,11,11.40
2008,11,13,13,12,11.40
2008,11,13,13,13,11.40
2008,11,13,13,14,11.40
2008,11,13,13,15,11.40
2008,11,13,13,16,11.40
2008,11,13,13,17,11.40
2008,11,13,13,18,11.30
2008,11,13,13,19,11.30
2008,11,13,13,20,11.30
2008,11,13,13,21,11.30
2008,11,13,13,22,11.30
2008,11,13,13,23,11.40
2008,11,13,13,24,11.40
2008,11,13,13,25,11.50
2008,11,13,13,26,11.60
2008,11,13,13,27,11.60
2008,11,13,13,28,11.60
2008,11,13,13,29,11.60
2008,11,13,13,30,11.60
2008,11,13,13,31,11.60
2008,11,13,13,32,11.70
2008,11,13,13,33,11.70
2008,11,13,13,34,11.70
2008,11,13,13,35,11.60
2008,11,13,13,36,11.60
2008,11,13,13,37,11.50
2008,11,13,13,38,11.40
2008,11,13,13,39,11.30
2008,11,13,13,40,11.30
2008,11,13,13,41,11.30
2008,11,13,13,42,11.40
2008,11,13,13,43,11.40
2008,11,13,13,44,11.40
2008,11,13,13,45,11.40
2008,11,13,13,46,11.40
2008,11,13,13,47,11.40
2008,11,13,13,48,11.40
2008,11,13,13,49,11.40
2008,11,13,13,50,11.60
2008,11,13,13,51,11.60
2008,11,13,13,52,11.60
2008,11,13,13,53,11.60
2008,11,13,13,54,11.60
2008,11,13,13,55,11.60
2008,11,13,13,56,11.60
2008,11,13,13,57,11.60
2008,11,13,13,58,11.60
2008,11,13,13,59,11.60
2008,11,13,14,00,11.60
2008,11,13,14,01,11.60
2008,11,13,14,02,11.60
2008,11,13,14,03,11.60
2008,11,13,14,04,11.50
2008,11,13,14,05,11.40
2008,11,13,14,06,11.40
2008,11,13,14,07,11.30
2008,11,13,14,08,11.40
2008,11,13,14,09,11.40
2008,11,13,14,10,11.40
2008,11,13,14,11,11.40
2008,11,13,14,12,11.40
2008,11,13,14,13,11.40
2008,11,13,14,14,11.40
2008,11,13,14,15,11.40
2008,11,13,14,16,11.40
2008,11,13,14,17,11.40
2008,11,13,14,18,11.40
2008,11,13,14,19,11.40
2008,11,13,14,20,11.40
2008,11,13,14,21,11.40
2008,11,13,14,22,11.40
2008,11,13,14,23,11.30
2008,11,13,14,24,11.40
2008,11,13,14,25,11.40
2008,11,13,14,26,11.30
2008,11,13,14,27,11.30
2008,11,13,14,28,11.30
2008,11,13,14,29,11.30
2008,11,13,14,30,11.40
2008,11,13,14,31,11.40
2008,11,13,14,32,11.40
2008,11,13,14,33,11.40
2008,11,13,14,34,11.40
2008,11,13,14,35,11.40
2008,11,13,14,36,11.50
2008,11,13,14,37,11.60
2008,11,13,14,38,11.50
2008,11,13,14,39,11.40
2008,11,13,14,40,11.40
2008,11,13,14,41,11.40
2008,11,13,14,42,11.30
2008,11,13,14,43,11.20
2008,11,13,14,44,11.20
2008,11,13,14,45,11.10
2008,11,13,14,46,11.10
2008,11,13,14,47,11.10
2008,11,13,14,48,11.10
2008,11,13,14,49,11.10
2008,11,13,14,50,11.10
2008,11,13,14,51,11.10
2008,11,13,14,52,11.10
2008,11,13,14,53,11.00
2008,11,13,14,54,10.90
2008,11,13,14,55,10.90
2008,11,13,14,56,10.90
2008,11,13,14,57,10.90
2008,11,13,14,58,10.90
2008,11,13,14,59,10.90
2008,11,13,15,00,10.90
2008,11,13,15,01,10.90
2008,11,13,15,02,10.90
2008,11,13,15,03,10.90
2008,11,13,15,04,10.80
2008,11,13,15,05,10.80
2008,11,13,15,06,10.90
2008,11,13,15,07,10.90
2008,11,13,15,08,10.90
2008,11,13,15,09,10.90
2008,11,13,15,10,10.90
2008,11,13,15,11,10.90
2008,11,13,15,12,10.90
2008,11,13,15,13,10.80
2008,11,13,15,14,10.80
2008,11,13,15,15,10.70
2008,11,13,15,16,10.60
2008,11,13,15,17,10.60
2008,11,13,15,18,10.40
2008,11,13,15,19,10.40
2008,11,13,15,20,10.40
2008,11,13,15,21,10.30
2008,11,13,15,22,10.30
2008,11,13,15,23,10.30
2008,11,13,15,24,10.20
2008,11,13,15,25,10.20
2008,11,13,15,26,10.20
2008,11,13,15,27,10.10
2008,11,13,15,28,10.10
2008,11,13,15,29,10.10
2008,11,13,15,30,10.10
2008,11,13,15,31,10.10
2008,11,13,15,32,10.10
2008,11,13,15,33,10.00
2008,11,13,15,34,9.90
2008,11,13,15,35,9.90
2008,11,13,15,36,9.90
2008,11,13,15,37,9.90
2008,11,13,15,38,9.90
2008,11,13,15,39,9.90
2008,11,13,15,40,9.90
2008,11,13,15,41,9.90
2008,11,13,15,42,9.90
2008,11,13,15,43,9.90
2008,11,13,15,44,9.90
2008,11,13,15,45,9.90
2008,11,13,15,46,9.80
2008,11,13,15,47,9.80
2008,11,13,15,48,9.80
2008,11,13,15,49,9.80
2008,11,13,15,50,9.80
2008,11,13,15,51,9.80
2008,11,13,15,52,9.80
2008,11,13,15,53,9.80
2008,11,13,15,54,9.80
2008,11,13,15,55,9.70
2008,11,13,15,56,9.70
2008,11,13,15,57,9.70
2008,11,13,15,58,9.70
2008,11,13,15,59,9.70
2008,11,13,16,00,9.70
2008,11,13,16,01,9.70
2008,11,13,16,02,9.70
2008,11,13,16,03,9.70
2008,11,13,16,04,9.70
2008,11,13,16,05,9.70
2008,11,13,16,06,9.70
2008,11,13,16,07,9.70
2008,11,13,16,08,9.70
2008,11,13,16,09,9.70
2008,11,13,16,10,9.70
2008,11,13,16,11,9.70
2008,11,13,16,12,9.60
2008,11,13,16,13,9.60
2008,11,13,16,14,9.60
2008,11,13,16,15,9.60
2008,11,13,16,16,9.50
2008,11,13,16,17,9.50
2008,11,13,16,18,9.50
2008,11,13,16,19,9.40
2008,11,13,16,20,9.40
2008,11,13,16,21,9.40
2008,11,13,16,22,9.30
2008,11,13,16,23,9.30
2008,11,13,16,24,9.30
2008,11,13,16,25,9.20
2008,11,13,16,26,9.20
2008,11,13,16,27,9.20
2008,11,13,16,28,9.20
2008,11,13,16,29,9.20
2008,11,13,16,30,9.10
2008,11,13,16,31,9.10
2008,11,13,16,32,9.10
2008,11,13,16,33,9.00
2008,11,13,16,34,9.00
2008,11,13,16,35,9.00
2008,11,13,16,36,9.00
2008,11,13,16,37,8.90
2008,11,13,16,38,8.90
2008,11,13,16,39,8.90
2008,11,13,16,40,8.90
2008,11,13,16,41,8.80
2008,11,13,16,42,8.80
2008,11,13,16,43,8.80
2008,11,13,16,44,8.80
2008,11,13,16,45,8.70
2008,11,13,16,46,8.70
2008,11,13,16,47,8.70
2008,11,13,16,48,8.70
2008,11,13,16,49,8.70
2008,11,13,16,50,8.70
2008,11,13,16,51,8.70
2008,11,13,16,52,8.70
2008,11,13,16,53,8.70
2008,11,13,16,54,8.60
2008,11,13,16,55,8.60
2008,11,13,16,56,8.60
2008,11,13,16,57,8.60
2008,11,13,16,58,8.60
2008,11,13,16,59,8.60
2008,11,13,17,00,8.60
2008,11,13,17,01,8.60
2008,11,13,17,02,8.50
2008,11,13,17,03,8.50
2008,11,13,17,04,8.50
2008,11,13,17,05,8.50
2008,11,13,17,06,8.50
2008,11,13,17,07,8.50
2008,11,13,17,08,8.50
2008,11,13,17,09,8.40
2008,11,13,17,10,8.40
2008,11,13,17,11,8.40
2008,11,13,17,12,8.40
2008,11,13,17,13,8.40
2008,11,13,17,14,8.30
2008,11,13,17,15,8.30
2008,11,13,17,16,8.30
2008,11,13,17,17,8.20
2008,11,13,17,18,8.20
2008,11,13,17,19,8.20
2008,11,13,17,20,8.20
2008,11,13,17,21,8.20
2008,11,13,17,22,8.10
2008,11,13,17,23,8.10
2008,11,13,17,24,8.00
2008,11,13,17,25,8.00
2008,11,13,17,26,8.00
2008,11,13,17,27,7.90
2008,11,13,17,28,7.90
2008,11,13,17,29,7.90
2008,11,13,17,30,7.90
2008,11,13,17,31,7.90
2008,11,13,17,32,7.80
2008,11,13,17,33,7.80
2008,11,13,17,34,7.80
2008,11,13,17,35,7.80
2008,11,13,17,36,7.80
2008,11,13,17,37,7.80
2008,11,13,17,38,7.80
2008,11,13,17,39,7.80
2008,11,13,17,40,7.80
2008,11,13,17,41,7.70
2008,11,13,17,42,7.70
2008,11,13,17,43,7.70
2008,11,13,17,44,7.70
2008,11,13,17,45,7.70
2008,11,13,17,46,7.70
2008,11,13,17,47,7.70
2008,11,13,17,48,7.60
2008,11,13,17,49,7.60
2008,11,13,17,50,7.60
2008,11,13,17,51,7.50
2008,11,13,17,52,7.50
2008,11,13,17,53,7.50
2008,11,13,17,54,7.40
2008,11,13,17,55,7.40
2008,11,13,17,56,7.40
2008,11,13,17,57,7.30
2008,11,13,17,58,7.30
2008,11,13,17,59,7.30
2008,11,13,18,00,7.20
2008,11,13,18,01,7.10
2008,11,13,18,02,7.10
2008,11,13,18,03,7.00
2008,11,13,18,04,7.00
2008,11,13,18,05,6.90
2008,11,13,18,06,6.90
2008,11,13,18,07,6.80
2008,11,13,18,08,6.80
2008,11,13,18,09,6.70
2008,11,13,18,10,6.60
2008,11,13,18,11,6.60
2008,11,13,18,12,6.50
2008,11,13,18,13,6.40
2008,11,13,18,14,6.40
2008,11,13,18,15,6.30
2008,11,13,18,16,6.30
2008,11,13,18,17,6.20
2008,11,13,18,18,6.20
2008,11,13,18,19,6.20
2008,11,13,18,20,6.20
2008,11,13,18,21,6.10
2008,11,13,18,22,6.10
2008,11,13,18,23,6.00
2008,11,13,18,24,6.00
2008,11,13,18,25,5.90
2008,11,13,18,26,5.90
2008,11,13,18,27,5.80
2008,11,13,18,28,5.80
2008,11,13,18,29,5.70
2008,11,13,18,30,5.70
2008,11,13,18,31,5.70
2008,11,13,18,32,5.70
2008,11,13,18,33,5.70
2008,11,13,18,34,5.70
2008,11,13,18,35,5.70
2008,11,13,18,36,5.70
2008,11,13,18,37,5.70
2008,11,13,18,38,5.70
2008,11,13,18,39,5.70
2008,11,13,18,40,5.80
2008,11,13,18,41,5.80
2008,11,13,18,42,5.90
2008,11,13,18,43,6.00
2008,11,13,18,44,6.00
2008,11,13,18,45,6.10
2008,11,13,18,46,6.20
2008,11,13,18,47,6.20
2008,11,13,18,48,6.20
2008,11,13,18,49,6.20
2008,11,13,18,50,6.20
2008,11,13,18,51,6.20
2008,11,13,18,52,6.30
2008,11,13,18,53,6.30
2008,11,13,18,54,6.30
2008,11,13,18,55,6.30
2008,11,13,18,56,6.40
2008,11,13,18,57,6.40
2008,11,13,18,58,6.40
2008,11,13,18,59,6.40
2008,11,13,19,00,6.40
2008,11,13,19,01,6.40
2008,11,13,19,02,6.60
2008,11,13,19,03,6.40
2008,11,13,19,04,6.40
2008,11,13,19,05,6.40
2008,11,13,19,06,6.40
2008,11,13,19,07,6.40
2008,11,13,19,08,6.40
2008,11,13,19,09,6.40
2008,11,13,19,10,6.40
2008,11,13,19,11,6.30
2008,11,13,19,12,6.30
2008,11,13,19,13,6.20
2008,11,13,19,14,6.20
2008,11,13,19,15,6.10
2008,11,13,19,16,6.00
2008,11,13,19,17,6.00
2008,11,13,19,18,5.90
2008,11,13,19,19,5.90
2008,11,13,19,20,5.80
2008,11,13,19,21,5.70
2008,11,13,19,22,5.70
2008,11,13,19,23,5.70
2008,11,13,19,24,5.70
2008,11,13,19,25,5.70
2008,11,13,19,26,5.70
2008,11,13,19,27,5.70
2008,11,13,19,28,5.70
2008,11,13,19,29,5.70
2008,11,13,19,30,5.70
2008,11,13,19,31,5.70
2008,11,13,19,32,5.70
2008,11,13,19,33,5.70
2008,11,13,19,34,5.70
2008,11,13,19,35,5.80
2008,11,13,19,36,5.80
2008,11,13,19,37,5.70
2008,11,13,19,38,5.70
2008,11,13,19,39,5.70
2008,11,13,19,40,5.70
2008,11,13,19,41,5.70
2008,11,13,19,42,5.60
2008,11,13,19,43,5.50
2008,11,13,19,44,5.50
2008,11,13,19,45,5.40
2008,11,13,19,46,5.30
2008,11,13,19,47,5.30
2008,11,13,19,48,5.20
2008,11,13,19,49,5.20
2008,11,13,19,50,5.20
2008,11,13,19,51,5.10
2008,11,13,19,52,5.10
2008,11,13,19,53,5.10
2008,11,13,19,54,5.10
2008,11,13,19,55,5.10
2008,11,13,19,56,5.10
2008,11,13,19,57,5.10
2008,11,13,20,00,5.10
2008,11,13,20,01,4.90
2008,11,13,20,10,5.10
